Date String (YYYY-MM-DD hh:mm:ss) UTC,Instrument flags,Ambient pressure (hPa),Sample flow (lpm),Bypass flow (lpm),Sample temperature (°C),Ambient temperature (°C),ASC tube jacket temperature (°C),LED temperature (°C),Box temperature (°C),Sample RH (%),Span deviation,Mass concentration (μg/m³),Mass concentration (μg/m³),Mass concentration (μg/m³)
DateTimeUTC,F1_M11,P_M11,Q1_M11,Q2_M11,T1_M11,T2_M11,T3_M11,T4_M11,T5_M11,U1_M11,ZSPAN_M11,X0_M11,X2_M11,X1_M11
2022-02-01 22:00:00,,0821.2,4.99,0.00,22.3,21.7,00.0,31.4,23.9,11.7,0000.0,0008.48,0001.90,0001.33
2022-02-01 22:01:00,,0821.2,5.00,0.00,22.3,21.6,00.0,31.4,23.9,11.7,0000.0,0008.48,0001.93,0001.33
2022-02-01 22:02:00,,0821.2,5.02,0.00,22.3,21.6,00.0,31.4,23.9,11.7,0000.0,0008.18,0001.94,0001.33
2022-02-01 22:03:00,,0821.2,5.00,0.00,22.3,21.5,00.0,31.4,23.8,11.7,0000.0,0008.10,0001.94,0001.33
2022-02-01 22:04:00,,0821.2,5.01,0.00,22.2,21.5,00.0,31.4,23.8,11.8,0000.0,0006.91,0001.92,0001.35
2022-02-01 22:05:00,,0821.2,5.01,0.00,22.2,21.5,00.0,31.3,23.8,11.8,0000.0,0006.22,0001.89,0001.37
2022-02-01 22:06:00,,0821.2,4.99,0.00,22.2,21.5,00.0,31.3,23.8,11.9,0000.0,0006.02,0001.91,0001.38
2022-02-01 22:07:00,,0821.3,5.01,0.00,22.2,21.5,00.0,31.3,23.8,12.0,0000.0,0005.81,0001.94,0001.39
2022-02-01 22:08:00,,0821.3,4.99,0.00,22.3,22.0,00.0,31.3,24.0,11.9,0000.0,0005.87,0002.00,0001.39
2022-02-01 22:09:00,,0821.3,5.00,0.00,22.4,22.8,00.0,31.4,24.2,11.8,0000.0,0005.20,0002.02,0001.40
2022-02-01 22:10:00,,0821.3,5.00,0.00,22.5,23.2,00.0,31.4,24.4,11.8,0000.0,0004.71,0002.02,0001.40
2022-02-01 22:11:00,,0821.3,5.00,0.00,22.6,23.0,00.0,31.4,24.5,11.7,0000.0,0004.86,0002.05,0001.42
2022-02-01 22:12:00,,0821.3,5.00,0.00,22.6,22.8,00.0,31.4,24.4,11.7,0000.0,0005.61,0002.09,0001.42
2022-02-01 22:13:00,,0821.3,4.99,0.00,22.6,22.6,00.0,31.4,24.3,11.8,0000.0,0005.75,0002.11,0001.43
2022-02-01 22:14:00,,0821.3,5.00,0.00,22.6,22.4,00.0,31.4,24.3,11.8,0000.0,0005.76,0002.17,0001.45
2022-02-01 22:15:00,,0821.3,5.02,0.00,22.5,22.2,00.0,31.5,24.2,11.9,0000.0,0005.82,0002.22,0001.46
2022-02-01 22:16:00,,0821.2,4.99,0.00,22.5,22.1,00.0,31.4,24.1,11.9,0000.0,0006.28,0002.24,0001.45
2022-02-01 22:17:00,,0821.2,5.01,0.00,22.5,22.0,00.0,31.4,24.1,11.9,0000.0,0006.57,0002.18,0001.44
2022-02-01 22:18:00,,0821.2,4.99,0.00,22.4,21.9,00.0,31.4,24.1,11.8,0000.0,0006.44,0002.14,0001.43
2022-02-01 22:19:00,,0821.2,5.00,0.00,22.4,21.8,00.0,31.4,24.0,11.9,0000.0,0006.14,0002.13,0001.43
2022-02-01 22:20:00,,0821.3,5.01,0.00,22.4,21.7,00.0,31.4,24.0,11.9,0000.0,0006.28,0002.15,0001.43
2022-02-01 22:21:00,,0821.3,4.99,0.00,22.3,21.7,00.0,31.4,23.9,12.0,0000.0,0006.23,0002.15,0001.41
2022-02-01 22:22:00,,0821.4,5.00,0.00,22.3,21.6,00.0,31.4,23.9,12.0,0000.0,0005.88,0002.12,0001.40
2022-02-01 22:23:00,,0821.4,5.02,0.00,22.3,21.6,00.0,31.4,23.9,12.0,0000.0,0004.71,0002.03,0001.39
2022-02-01 22:24:00,,0821.4,4.99,0.00,22.3,21.6,00.0,31.4,23.9,12.0,0000.0,0005.15,0002.04,0001.38
2022-02-01 22:25:00,,0821.4,5.01,0.00,22.3,21.5,00.0,31.4,23.9,12.0,0000.0,0006.19,0002.02,0001.36
2022-02-01 22:26:00,,0821.4,4.99,0.00,22.2,21.5,00.0,31.4,23.9,12.0,0000.0,0006.26,0001.96,0001.35
2022-02-01 22:27:00,,0821.4,5.01,0.00,22.2,21.5,00.0,31.3,23.8,12.0,0000.0,0005.84,0001.98,0001.35
2022-02-01 22:28:00,,0821.4,4.98,0.00,22.2,21.5,00.0,31.3,23.8,12.0,0000.0,0005.52,0002.00,0001.37
2022-02-01 22:29:00,,0821.4,5.02,0.00,22.2,21.4,00.0,31.3,23.8,12.0,0000.0,0005.48,0002.02,0001.37
2022-02-01 22:30:00,,0821.5,4.99,0.00,22.2,21.7,00.0,31.3,23.9,12.0,0000.0,0005.41,0001.99,0001.37
2022-02-01 22:31:00,,0821.5,5.00,0.00,22.3,22.5,00.0,31.4,24.1,12.0,0000.0,0006.46,0001.97,0001.37
2022-02-01 22:32:00,,0821.5,5.00,0.00,22.4,23.2,00.0,31.4,24.4,11.9,0000.0,0006.68,0001.98,0001.37
2022-02-01 22:33:00,,0821.4,5.00,0.00,22.6,23.2,00.0,31.4,24.5,11.9,0000.0,0007.12,0001.96,0001.37
2022-02-01 22:34:00,,0821.4,4.99,0.00,22.6,22.9,00.0,31.4,24.4,11.9,0000.0,0007.80,0002.02,0001.38
2022-02-01 22:35:00,,0821.5,5.00,0.00,22.6,22.7,00.0,31.4,24.4,11.9,0000.0,0007.60,0002.01,0001.39
2022-02-01 22:36:00,,0821.4,5.00,0.00,22.6,22.5,00.0,31.4,24.3,11.9,0000.0,0006.92,0001.97,0001.40
2022-02-01 22:37:00,,0821.4,5.01,0.00,22.6,22.3,00.0,31.4,24.2,11.9,0000.0,0007.04,0002.00,0001.41
2022-02-01 22:38:00,,0821.4,4.99,0.00,22.5,22.2,00.0,31.5,24.2,12.0,0000.0,0007.15,0002.03,0001.42
2022-02-01 22:39:00,,0821.4,5.01,0.00,22.5,22.0,00.0,31.5,24.1,12.0,0000.0,0007.31,0002.07,0001.43
2022-02-01 22:40:00,,0821.4,4.99,0.00,22.5,21.9,00.0,31.5,24.1,12.0,0000.0,0007.44,0002.13,0001.44
2022-02-01 22:41:00,,0821.4,5.00,0.00,22.4,21.8,00.0,31.5,24.1,12.0,0000.0,0007.41,0002.15,0001.46
2022-02-01 22:42:00,,0821.5,5.00,0.00,22.4,21.8,00.0,31.4,24.0,12.0,0000.0,0006.31,0002.18,0001.47
2022-02-01 22:43:00,,0821.5,5.00,0.00,22.4,21.7,00.0,31.4,24.0,12.1,0000.0,0006.36,0002.20,0001.48
2022-02-01 22:44:00,,0821.4,5.00,0.00,22.4,21.7,00.0,31.4,24.0,12.1,0000.0,0005.85,0002.20,0001.50
2022-02-01 22:45:00,,0821.5,5.01,0.00,22.3,21.6,00.0,31.4,24.0,12.1,0000.0,0005.21,0002.18,0001.51
2022-02-01 22:46:00,,0821.4,4.99,0.00,22.3,21.6,00.0,31.4,23.9,12.1,0000.0,0005.18,0002.16,0001.53
2022-02-01 22:47:00,,0821.5,5.00,0.00,22.3,21.6,00.0,31.4,23.9,12.1,0000.0,0005.32,0002.22,0001.53
2022-02-01 22:48:00,,0821.5,5.02,0.00,22.3,21.5,00.0,31.4,23.8,12.1,0000.0,0004.68,0002.18,0001.52
2022-02-01 22:49:00,,0821.4,4.99,0.00,22.2,21.5,00.0,31.3,23.8,12.1,0000.0,0004.65,0002.17,0001.53
2022-02-01 22:50:00,,0821.4,5.02,0.00,22.2,21.5,00.0,31.3,23.8,12.2,0000.0,0004.59,0002.14,0001.53
2022-02-01 22:51:00,,0821.4,4.99,0.00,22.2,21.6,00.0,31.3,23.8,12.2,0000.0,0004.43,0002.09,0001.54
2022-02-01 22:52:00,,0821.5,5.00,0.00,22.3,22.2,00.0,31.4,24.0,12.1,0000.0,0004.42,0002.08,0001.53
2022-02-01 22:53:00,,0821.4,5.00,0.00,22.4,23.0,00.0,31.4,24.3,12.0,0000.0,0004.35,0002.06,0001.53
2022-02-01 22:54:00,,0821.4,5.00,0.00,22.6,23.2,00.0,31.4,24.5,11.9,0000.0,0004.30,0002.03,0001.52
2022-02-01 22:55:00,,0821.4,5.00,0.00,22.6,22.9,00.0,31.4,24.5,11.9,0000.0,0004.40,0002.06,0001.52
2022-02-01 22:56:00,,0821.4,4.99,0.00,22.6,22.7,00.0,31.5,24.4,11.9,0000.0,0004.15,0002.04,0001.50
2022-02-01 22:57:00,,0821.5,5.01,0.00,22.6,22.5,00.0,31.5,24.3,11.9,0000.0,0003.73,0002.02,0001.50
2022-02-01 22:58:00,,0821.6,4.98,0.00,22.6,22.3,00.0,31.5,24.3,12.0,0000.0,0004.22,0002.01,0001.51
2022-02-01 22:59:00,,0821.7,5.01,0.00,22.5,22.2,00.0,31.5,24.2,12.0,0000.0,0005.14,0002.07,0001.51
